Location: Arbon
(43.0005°N, 0.7472°E)
Time: 22:51:42
(UTC+00:00)

Explorer 7 - Pass Details

Date: 26 November 2020
Orbit: 484 x 678 km, 50.3° (Epoch: 26 January)

Event Time Altitude Azimuth Distance (km) Brightness Sun altitude
Rises 04:19:35 0° 265° (W) 2,858 - -29.4°
Reaches altitude 10° 04:22:04 10° 272° (W) 1,921 - -29.0°
Maximum altitude 04:26:11 40° 343° (NNW) 848 - -28.2°
Exits shadow 04:28:08 24° 36° (NE) 1,158 8.7 -27.9°
Drops below altitude 10° 04:30:05 10° 54° (NE) 1,809 10.0 -27.5°
Sets 04:32:22 0° 62° (ENE) 2,669 11.2 -27.1°
